User: anonymous   Login
Location: Byszew
(52.1813°N, 19.2693°E)
Time: 13:04:27
(UTC+00:00)
Language:

Cosmos 2341 Rocket - Orbit

View from above orbital plane
View from above orbital plane
View from above satellite
View from above satellite

Ground track
Ground track

The orbit data is extracted from the following two-line orbital elements,

1 24773U 97017B   21126.87877587  .00000023  00000-0  83292-5 0  9990
2 24773  82.9249  41.2561 0023529 316.3339 110.4518 13.73657123205529
Epoch (UTC): 06 May 2021 21:05:26
Eccentricity: 0.0023529
inclination: 82.9249°
perigee height: 969 km
apogee height: 1004 km
right ascension of ascending node: 41.2561°
argument of perigee: 316.3339°
revolutions per day: 13.73657123
mean anomaly at epoch: 110.4518°
orbit number at epoch: 20552

The dashed part of the orbit path shows where the satellite is in the earth's shadow,  

DLR